Flag Weather past 2 weeks in Orenburg, Russia

Now
18 °F

Sunny.


Feels Like: 7 °F
Forecast: 12 / 19 °F
Wind: 8 mph from West

Location: Orenburg / Tsentralny

Current Time: Nov 26, 2014 at 4:21:29 PM

Latest Report: Nov 26, 2014 at 4:00 PM


Visibility: N/A

Pressure: 30.42 "Hg

Humidity: 45%

Dew point: 0 °F

Location of OrenburgLocation

Historic Weather in Orenburg — Graph

°F

Orenburg temperature yesterday

Maximum temperature yesterday: 16 °F (at 2:00 PM)
Minimum temperature yesterday: -2 °F (at 6:00 AM)
Average temperature yesterday: 6 °F

Past Weeks' High & Low Weather Summary

 TemperatureHumidityPressure
High37 °F (Nov 11, 3:00 PM)100% (Nov 12, 10:30 AM)30.86 "Hg (Nov 12, 10:30 AM)
Low-2 °F (Nov 25, 6:00 AM)37% (Nov 24, 2:30 PM)30.07 "Hg (Nov 23, 6:30 AM)
Average21 °F80%30.50 "Hg
* Reported Nov 11 3:00 PM — Nov 26 3:00 PM, Orenburg, Weather by CustomWeather, © 2014

Note: Actual official high and low records may vary slightly from our data, if they occured in-between our weather recording intervals... More about our weather records

Advertising

Orenburg weather history for previous 24 hours

 ConditionsComfort  
Time TempWeatherWind HumidityBarometerVisibility
3:00 PM
Nov 26
18 °FSunny.13 mph49%30.45 "HgN/A
2:30 PM18 °FSunny.10 mph49%30.45 "HgN/A
2:00 PM16 °FSunny.10 mph53%30.48 "HgN/A
1:30 PM14 °FSunny.10 mph52%30.48 "HgN/A
1:00 PM14 °FSunny.8 mph52%30.51 "HgN/A
12:30 PM12 °FSunny.8 mph57%30.51 "HgN/A
12:00 PM10 °FSunny.10 mph56%30.51 "HgN/A
11:30 AM9 °FSunny.10 mph61%30.51 "HgN/A
11:00 AM5 °FPassing clouds.10 mph72%30.54 "HgN/A
10:30 AM3 °FPassing clouds.8 mph72%30.54 "HgN/A
10:00 AM3 °FPassing clouds.6 mph72%30.57 "HgN/A
9:30 AM1 °FPassing clouds.3 mph71%30.57 "HgN/A
9:00 AM1 °FPassing clouds.8 mph71%30.54 "HgN/A
8:30 AM1 °FPassing clouds.10 mph71%30.57 "HgN/A
8:00 AM1 °FPassing clouds.8 mph71%30.57 "HgN/A
7:30 AM1 °FPassing clouds.8 mph71%30.57 "HgN/A
7:00 AM3 °FPassing clouds.8 mph72%30.60 "HgN/A
6:30 AM1 °FPassing clouds.6 mph71%30.60 "HgN/A
6:00 AM3 °FPassing clouds.6 mph72%30.60 "HgN/A
5:30 AM3 °FOvercast.3 mph72%30.63 "HgN/A
5:00 AM7 °FOvercast.6 mph66%30.63 "HgN/A
4:30 AM7 °FLight snow. Overcast.6 mph66%30.63 "Hg4 mi
4:00 AM7 °FLight snow. Overcast.6 mph66%30.63 "Hg4 mi
3:30 AM5 °FLight snow. Overcast.3 mph72%30.66 "Hg4 mi
3:00 AM5 °FLight snow. Overcast.6 mph72%30.66 "Hg4 mi
2:30 AM7 °FLight snow. Overcast.6 mph66%30.66 "Hg4 mi
1:30 AM5 °FPassing clouds.3 mph72%30.66 "HgN/A
1:00 AM3 °FPassing clouds.3 mph72%30.69 "HgN/A
12:30 AM5 °FPartly cloudy.3 mph66%30.69 "HgN/A
12:00 AM7 °FPassing clouds.6 mph66%30.69 "HgN/A
11:30 PM
Nov 25
5 °FPassing clouds.3 mph72%30.72 "HgN/A
11:00 PM5 °FPassing clouds.6 mph66%30.72 "HgN/A
10:30 PM5 °FPassing clouds.3 mph66%30.72 "HgN/A
10:00 PM7 °FPassing clouds.10 mph66%30.72 "HgN/A
9:30 PM7 °FPassing clouds.8 mph66%30.72 "HgN/A
9:00 PM5 °FPassing clouds.6 mph66%30.74 "HgN/A
8:30 PM7 °FPassing clouds.8 mph61%30.74 "HgN/A
8:00 PM7 °FPassing clouds.8 mph61%30.74 "HgN/A
7:30 PM10 °FPassing clouds.10 mph56%30.74 "HgN/A
7:00 PM12 °FPassing clouds.10 mph48%30.74 "HgN/A
6:30 PM12 °FPassing clouds.13 mph48%30.74 "HgN/A
6:00 PM12 °FPassing clouds.10 mph48%30.74 "HgN/A
5:30 PM12 °FPassing clouds.6 mph48%30.74 "HgN/A
5:00 PM14 °FScattered clouds.8 mph44%30.74 "HgN/A
4:30 PM16 °FSunny.10 mph37%30.74 "HgN/A
4:00 PM16 °FSunny.10 mph41%30.74 "HgN/A
Weather by CustomWeather, © 2014

See weather overviewHow to use our weather pages